N0COP Weather Reports


time (UTC)temp
C
wind
direction
speed
KPH
gust
KPH
rain 1hr
cm
rain 24hr
cm
rain mn
cm
humidity
%
barometer
mb
20260906223038 32 5 3.2 20.9 0.00 0.00 0.00 32 1015.6
20260906221536 31 75 3.2 11.3 0.00 0.00 0.00 33 1015.8
20260906220029 31 236 3.2 8.0 0.00 0.00 0.00 33 1016.0
20260906214531 31 341 3.2 12.9 0.00 0.00 0.00 33 1016.2
20260906213025 31 32 6.4 9.7 0.00 0.00 0.00 33 1016.4
20260906211522 31 355 6.4 11.3 0.00 0.00 0.00 33 1016.7
20260906210029 30 96 4.8 11.3 0.00 0.00 0.00 37 1016.9
20260906204527 30 115 4.8 11.3 0.00 0.00 0.00 34 1017.0
20260906203026 30 138 3.2 11.3 0.00 0.00 0.00 35 1017.2
20260906201524 30 105 4.8 11.3 0.00 0.00 0.00 34 1017.3
20260906200038 30 110 4.8 17.7 0.00 0.00 0.00 37 1017.4
20260906194536 29 67 8.0 11.3 0.00 0.00 0.00 36 1017.5
20260906193036 28 63 1.6 12.9 0.00 0.00 0.00 39 1017.6
20260906191531 29 349 4.8 9.7 0.00 0.00 0.00 37 1017.9
20260906190031 28 106 6.4 12.9 0.00 0.00 0.00 39 1018.1
20260906184528 27 74 1.6 12.9 0.00 0.00 0.00 38 1018.4
20260906183028 27 76 4.8 12.9 0.00 0.00 0.00 40 1018.7
20260906181524 27 28 3.2 11.3 0.00 0.00 0.00 42 1018.8
20260906180039 27 44 4.8 11.3 0.00 0.00 0.00 41 1019.0
20260906174530 26 355 3.2 9.7 0.00 0.00 0.00 41 1019.3
20260906173026 26 355 4.8 8.0 0.00 0.00 0.00 44 1019.5
20260906171523 25 143 1.6 4.8 0.00 0.00 0.00 44 1019.7
20260906170033 24 89 1.6 6.4 0.00 0.00 0.00 47 1020.1
20260906164532 24 36 3.2 6.4 0.00 0.00 0.00 50 1020.1
20260906163031 24 88 3.2 11.3 0.00 0.00 0.00 51 1020.1
20260906161538 23 57 3.2 8.0 0.00 0.00 0.00 56 1020.0
20260906160045 23 340 3.2 12.9 0.00 0.00 0.00 58 1020.0
20260906154547 22 49 3.2 12.9 0.00 0.00 0.00 62 1020.0
20260906153049 22 325 1.6 6.4 0.00 0.00 0.00 64 1020.0
20260906151543 21 263 3.2 9.7 0.00 0.00 0.00 67 1020.1
20260906150025 20 296 3.2 8.0 0.00 0.00 0.00 68 1020.3
20260906144524 20 330 1.6 8.0 0.00 0.00 0.00 71 1020.1
20260906143025 20 282 1.6 8.0 0.00 0.00 0.00 73 1020.1
20260906141524 18 265 3.2 8.0 0.00 0.00 0.00 76 1020.0
20260906140032 18 260 4.8 9.7 0.00 0.00 0.00 78 1020.1
20260906134520 17 278 3.2 6.4 0.00 0.00 0.00 78 1020.0
20260906133024 17 306 1.6 8.0 0.00 0.00 0.00 79 1019.9
20260906131519 16 306 3.2 6.4 0.00 0.00 0.00 78 1019.8
20260906130026 16 306 3.2 6.4 0.00 0.00 0.00 80 1019.8
20260906124516 16 306 0.0 3.2 0.00 0.00 0.00 81 1019.7
20260906123028 16 306 0.0 0.0 0.00 0.00 0.00 81 1019.8
20260906121515 16 306 0.0 0.0 0.00 0.00 0.00 81 1019.6
20260906120012 16 306 0.0 3.2 0.00 0.00 0.00 80 1019.7
20260906114511 16 306 0.0 4.8 0.00 0.00 0.00 79 1019.6
20260906113013 17 306 0.0 3.2 0.00 0.00 0.00 78 1019.7
20260906111507 17 306 1.6 4.8 0.00 0.00 0.00 78 1019.5
20260906110005 17 306 0.0 6.4 0.00 0.00 0.00 77 1019.4
20260906104503 17 305 1.6 8.0 0.00 0.00 0.00 75 1019.3
20260906103004 17 332 1.6 4.8 0.00 0.00 0.00 74 1019.4
20260906101600 17 342 1.6 6.4 0.00 0.00 0.00 72 1019.4
20260906094556 18 349 1.6 6.4 0.00 0.00 0.00 66 1019.4
20260906093052 18 349 3.2 8.0 0.00 0.00 0.00 61 1019.4
20260906091549 19 349 0.0 4.8 0.00 0.00 0.00 57 1019.3
20260906090045 20 360 1.6 9.7 0.00 0.00 0.00 56 1019.1
20260906084543 20 17 1.6 8.0 0.00 0.00 0.00 51 1019.1
20260906083041 20 17 1.6 6.4 0.00 0.00 0.00 51 1019.0
20260906081540 21 259 0.0 6.4 0.00 0.00 0.00 49 1018.9
20260906080038 21 259 3.2 6.4 0.00 0.00 0.00 48 1018.7
20260906074547 21 259 4.8 8.0 0.00 0.00 0.00 50 1018.5
20260906073036 21 253 3.2 4.8 0.00 0.00 0.00 54 1018.6
20260906071534 21 253 3.2 6.4 0.00 0.00 0.00 60 1018.7
20260906070030 21 253 3.2 4.8 0.00 0.00 0.00 56 1018.7
20260906064527 22 253 3.2 6.4 0.00 0.00 0.00 53 1018.8
20260906063030 22 189 1.6 4.8 0.00 0.00 0.00 48 1019.0
20260906061523 22 189 0.0 6.4 0.00 0.00 0.00 48 1018.9
20260906060022 22 189 4.8 11.3 0.00 0.00 0.00 46 1018.9
20260906054532 23 294 1.6 4.8 0.00 0.00 0.00 45 1018.7
20260906053020 23 244 1.6 6.4 0.00 0.00 0.00 42 1019.0
20260906051529 23 171 0.0 3.2 0.00 0.00 0.00 43 1019.4
20260906050035 23 169 0.0 4.8 0.00 0.00 0.00 40 1019.7
20260906044529 23 268 3.2 4.8 0.00 0.00 0.00 43 1019.7
20260906043027 23 325 0.0 4.8 0.00 0.00 0.00 46 1018.9
20260906041525 23 344 1.6 3.2 0.00 0.00 0.00 38 1018.8
20260906040038 24 355 0.0 3.2 0.00 0.00 0.00 36 1018.6
20260906034536 24 350 0.0 3.2 0.00 0.00 0.00 36 1018.4
20260906033028 24 350 1.6 3.2 0.00 0.00 0.00 36 1018.4
20260906031557 24 355 1.6 4.8 0.00 0.00 0.00 35 1018.3
20260906030033 25 355 1.6 3.2 0.00 0.00 0.00 34 1017.8
20260906024552 25 355 0.0 3.2 0.00 0.00 0.00 33 1017.5
20260906023034 26 30 0.0 1.6 0.00 0.00 0.00 32 1017.5
20260906021531 26 98 1.6 4.8 0.00 0.00 0.00 31 1017.5
20260906020037 27 302 1.6 8.0 0.00 0.00 0.00 29 1017.3
20260906014537 27 277 3.2 6.4 0.00 0.00 0.00 29 1017.2
20260906013037 27 269 3.2 9.7 0.00 0.00 0.00 28 1017.1
20260906011537 28 279 3.2 12.9 0.00 0.00 0.00 27 1017.1
20260906010039 28 282 4.8 19.3 0.00 0.00 0.00 26 1017.1
20260906004520 30 334 1.6 14.5 0.00 0.00 0.00 25 1017.1
20260906003020 30 5 3.2 8.0 0.00 0.00 0.00 24 1017.2
20260906001524 31 337 3.2 9.7 0.00 0.00 0.00 23 1017.1
20260906000026 31 350 4.8 9.7 0.00 0.00 0.00 22 1016.9
20260905234524 32 38 0.0 4.8 0.00 0.00 0.00 23 1017.0
20260905233025 32 342 1.6 6.4 0.00 0.00 0.00 22 1016.9
20260905231524 32 205 0.0 4.8 0.00 0.00 0.00 21 1016.8
20260905230035 32 19 1.6 11.3 0.00 0.00 0.00 21 1016.8
20260905224533 32 5 3.2 8.0 0.00 0.00 0.00 20 1016.8